Year,Month,Day,Hour,Minute,Value (Times are PST for temperature in C)
2017,05,22,00,00,10.20
2017,05,22,00,01,10.20
2017,05,22,00,02,10.20
2017,05,22,00,03,10.30
2017,05,22,00,04,10.30
2017,05,22,00,05,10.30
2017,05,22,00,06,10.30
2017,05,22,00,07,10.30
2017,05,22,00,08,10.30
2017,05,22,00,09,10.30
2017,05,22,00,10,10.30
2017,05,22,00,11,10.30
2017,05,22,00,12,10.30
2017,05,22,00,13,10.30
2017,05,22,00,14,10.30
2017,05,22,00,15,10.30
2017,05,22,00,16,10.30
2017,05,22,00,17,10.30
2017,05,22,00,18,10.30
2017,05,22,00,19,10.30
2017,05,22,00,20,10.30
2017,05,22,00,21,10.30
2017,05,22,00,22,10.30
2017,05,22,00,23,9.20
2017,05,22,00,24,9.20
2017,05,22,00,25,9.20
2017,05,22,00,26,9.20
2017,05,22,00,27,9.20
2017,05,22,00,28,9.20
2017,05,22,00,29,9.20
2017,05,22,00,30,9.20
2017,05,22,00,31,9.20
2017,05,22,00,32,9.20
2017,05,22,00,33,9.20
2017,05,22,00,34,9.90
2017,05,22,00,35,9.90
2017,05,22,00,36,9.90
2017,05,22,00,37,9.90
2017,05,22,00,38,9.90
2017,05,22,00,39,9.90
2017,05,22,00,40,9.90
2017,05,22,00,41,9.90
2017,05,22,00,42,10.20
2017,05,22,00,43,10.20
2017,05,22,00,44,10.20
2017,05,22,00,45,10.20
2017,05,22,00,46,10.20
2017,05,22,00,47,10.20
2017,05,22,00,48,10.20
2017,05,22,00,49,10.20
2017,05,22,00,50,10.20
2017,05,22,00,51,10.20
2017,05,22,00,52,10.30
2017,05,22,00,53,10.30
2017,05,22,00,54,10.30
2017,05,22,00,55,10.30
2017,05,22,00,56,10.30
2017,05,22,00,57,10.30
2017,05,22,00,58,10.30
2017,05,22,00,59,10.30
2017,05,22,01,00,10.30
2017,05,22,01,01,10.30
2017,05,22,01,02,10.00
2017,05,22,01,03,10.00
2017,05,22,01,04,10.00
2017,05,22,01,05,10.00
2017,05,22,01,06,10.00
2017,05,22,01,07,10.00
2017,05,22,01,08,10.00
2017,05,22,01,09,10.00
2017,05,22,01,10,10.00
2017,05,22,01,11,10.00
2017,05,22,01,12,10.00
2017,05,22,01,13,10.00
2017,05,22,01,14,9.60
2017,05,22,01,15,9.60
2017,05,22,01,16,9.60
2017,05,22,01,17,9.60
2017,05,22,01,18,9.60
2017,05,22,01,19,9.60
2017,05,22,01,20,9.60
2017,05,22,01,21,9.60
2017,05,22,01,22,8.40
2017,05,22,01,23,8.40
2017,05,22,01,24,8.40
2017,05,22,01,25,8.40
2017,05,22,01,26,8.40
2017,05,22,01,27,8.40
2017,05,22,01,28,8.40
2017,05,22,01,29,8.40
2017,05,22,01,30,8.40
2017,05,22,01,31,8.40
2017,05,22,01,32,8.40
2017,05,22,01,33,8.80
2017,05,22,01,34,8.80
2017,05,22,01,35,8.80
2017,05,22,01,36,8.80
2017,05,22,01,37,8.80
2017,05,22,01,38,8.80
2017,05,22,01,39,8.80
2017,05,22,01,40,8.80
2017,05,22,01,41,8.80
2017,05,22,01,42,8.80
2017,05,22,01,43,8.80
2017,05,22,01,44,9.80
2017,05,22,01,45,9.80
2017,05,22,01,46,9.80
2017,05,22,01,47,9.80
2017,05,22,01,48,9.80
2017,05,22,01,49,9.80
2017,05,22,01,50,9.80
2017,05,22,01,51,9.80
2017,05,22,01,52,9.80
2017,05,22,01,53,10.30
2017,05,22,01,54,10.30
2017,05,22,01,55,10.30
2017,05,22,01,56,10.30
2017,05,22,01,57,10.30
2017,05,22,01,58,10.30
2017,05,22,01,59,10.30
2017,05,22,02,00,10.30
2017,05,22,02,01,10.30
2017,05,22,02,02,10.50
2017,05,22,02,03,10.50
2017,05,22,02,04,10.50
2017,05,22,02,05,10.50
2017,05,22,02,06,10.50
2017,05,22,02,07,10.50
2017,05,22,02,08,10.50
2017,05,22,02,09,10.50
2017,05,22,02,10,10.50
2017,05,22,02,11,10.50
2017,05,22,02,12,10.30
2017,05,22,02,13,10.30
2017,05,22,02,14,10.30
2017,05,22,02,15,10.30
2017,05,22,02,16,10.30
2017,05,22,02,17,10.30
2017,05,22,02,18,10.30
2017,05,22,02,19,10.30
2017,05,22,02,20,10.30
2017,05,22,02,21,10.30
2017,05,22,02,22,10.40
2017,05,22,02,23,10.40
2017,05,22,02,24,10.40
2017,05,22,02,25,10.40
2017,05,22,02,26,10.40
2017,05,22,02,27,10.40
2017,05,22,02,28,10.40
2017,05,22,02,29,10.40
2017,05,22,02,30,10.40
2017,05,22,02,31,10.40
2017,05,22,02,32,10.40
2017,05,22,02,33,10.30
2017,05,22,02,34,10.30
2017,05,22,02,35,10.30
2017,05,22,02,36,10.30
2017,05,22,02,37,10.30
2017,05,22,02,38,10.30
2017,05,22,02,39,10.30
2017,05,22,02,40,10.30
2017,05,22,02,41,10.30
2017,05,22,02,42,10.20
2017,05,22,02,43,10.20
2017,05,22,02,44,10.20
2017,05,22,02,45,10.20
2017,05,22,02,46,10.20
2017,05,22,02,47,10.20
2017,05,22,02,48,10.20
2017,05,22,02,49,10.20
2017,05,22,02,50,10.20
2017,05,22,02,51,10.20
2017,05,22,02,52,10.20
2017,05,22,02,53,9.60
2017,05,22,02,54,9.60
2017,05,22,02,55,9.60
2017,05,22,02,56,9.60
2017,05,22,02,57,9.60
2017,05,22,02,58,9.60
2017,05,22,02,59,9.60
2017,05,22,03,00,9.60
2017,05,22,03,01,9.60
2017,05,22,03,02,9.60
2017,05,22,03,03,8.60
2017,05,22,03,04,8.60
2017,05,22,03,05,8.60
2017,05,22,03,06,8.60
2017,05,22,03,07,8.60
2017,05,22,03,08,8.60
2017,05,22,03,09,8.60
2017,05,22,03,10,8.60
2017,05,22,03,11,8.60
2017,05,22,03,12,8.60
2017,05,22,03,13,8.60
2017,05,22,03,14,9.60
2017,05,22,03,15,9.60
2017,05,22,03,16,9.60
2017,05,22,03,17,9.60
2017,05,22,03,18,9.60
2017,05,22,03,19,9.60
2017,05,22,03,20,9.60
2017,05,22,03,21,9.60
2017,05,22,03,22,9.90
2017,05,22,03,23,9.90
2017,05,22,03,24,9.90
2017,05,22,03,25,9.90
2017,05,22,03,26,9.90
2017,05,22,03,27,9.90
2017,05,22,03,28,9.90
2017,05,22,03,29,9.90
2017,05,22,03,30,9.90
2017,05,22,03,31,9.90
2017,05,22,03,32,9.90
2017,05,22,03,33,9.80
2017,05,22,03,34,9.80
2017,05,22,03,35,9.80
2017,05,22,03,36,9.80
2017,05,22,03,37,9.80
2017,05,22,03,38,9.80
2017,05,22,03,39,9.80
2017,05,22,03,40,9.80
2017,05,22,03,41,9.80
2017,05,22,03,42,9.60
2017,05,22,03,43,9.60
2017,05,22,03,44,9.60
2017,05,22,03,45,9.60
2017,05,22,03,46,9.60
2017,05,22,03,47,9.60
2017,05,22,03,48,9.60
2017,05,22,03,49,9.60
2017,05,22,03,50,9.60
2017,05,22,03,51,9.60
2017,05,22,03,52,9.50
2017,05,22,03,53,9.50
2017,05,22,03,54,9.50
2017,05,22,03,55,9.50
2017,05,22,03,56,9.50
2017,05,22,03,57,9.50
2017,05,22,03,58,9.50
2017,05,22,03,59,9.50
2017,05,22,04,00,9.50
2017,05,22,04,01,9.50
2017,05,22,04,02,9.50
2017,05,22,04,03,9.40
2017,05,22,04,04,9.40
2017,05,22,04,05,9.40
2017,05,22,04,06,9.40
2017,05,22,04,07,9.40
2017,05,22,04,08,9.40
2017,05,22,04,09,9.40
2017,05,22,04,10,9.40
2017,05,22,04,11,9.40
2017,05,22,04,12,10.30
2017,05,22,04,13,10.30
2017,05,22,04,14,10.30
2017,05,22,04,15,10.30
2017,05,22,04,16,10.30
2017,05,22,04,17,10.30
2017,05,22,04,18,10.30
2017,05,22,04,19,10.30
2017,05,22,04,20,10.30
2017,05,22,04,21,10.30
2017,05,22,04,22,10.30
2017,05,22,04,23,10.30
2017,05,22,04,24,9.70
2017,05,22,04,25,9.70
2017,05,22,04,26,9.70
2017,05,22,04,27,9.70
2017,05,22,04,28,9.70
2017,05,22,04,29,9.70
2017,05,22,04,30,9.70
2017,05,22,04,31,9.70
2017,05,22,04,32,9.70
2017,05,22,04,33,9.00
2017,05,22,04,34,9.00
2017,05,22,04,35,9.00
2017,05,22,04,36,9.00
2017,05,22,04,37,9.00
2017,05,22,04,38,9.00
2017,05,22,04,39,9.00
2017,05,22,04,40,9.00
2017,05,22,04,41,9.00
2017,05,22,04,42,9.20
2017,05,22,04,43,9.20
2017,05,22,04,44,9.20
2017,05,22,04,45,9.20
2017,05,22,04,46,9.20
2017,05,22,04,47,9.20
2017,05,22,04,48,9.20
2017,05,22,04,49,9.20
2017,05,22,04,50,9.20
2017,05,22,04,51,9.20
2017,05,22,04,52,9.20
2017,05,22,04,53,8.70
2017,05,22,04,54,8.70
2017,05,22,04,55,8.70
2017,05,22,04,56,8.70
2017,05,22,04,57,8.70
2017,05,22,04,58,8.70
2017,05,22,04,59,8.70
2017,05,22,05,00,8.70
2017,05,22,05,01,8.70
2017,05,22,05,02,7.80
2017,05,22,05,03,7.80
2017,05,22,05,04,7.80
2017,05,22,05,05,7.80
2017,05,22,05,06,7.80
2017,05,22,05,07,7.80
2017,05,22,05,08,7.80
2017,05,22,05,09,7.80
2017,05,22,05,10,7.80
2017,05,22,05,11,7.80
2017,05,22,05,12,7.70
2017,05,22,05,13,7.70
2017,05,22,05,14,7.70
2017,05,22,05,15,7.70
2017,05,22,05,16,7.70
2017,05,22,05,17,7.70
2017,05,22,05,18,7.70
2017,05,22,05,19,7.70
2017,05,22,05,20,7.70
2017,05,22,05,21,7.70
2017,05,22,05,22,7.70
2017,05,22,05,23,7.50
2017,05,22,05,24,7.50
2017,05,22,05,25,7.50
2017,05,22,05,26,7.50
2017,05,22,05,27,7.50
2017,05,22,05,28,7.50
2017,05,22,05,29,7.50
2017,05,22,05,30,7.50
2017,05,22,05,31,7.50
2017,05,22,05,32,7.60
2017,05,22,05,33,7.60
2017,05,22,05,34,7.60
2017,05,22,05,35,7.60
2017,05,22,05,36,7.60
2017,05,22,05,37,7.60
2017,05,22,05,38,7.60
2017,05,22,05,39,7.60
2017,05,22,05,40,7.60
2017,05,22,05,41,7.60
2017,05,22,05,42,7.60
2017,05,22,05,43,7.60
2017,05,22,05,44,7.60
2017,05,22,05,45,7.60
2017,05,22,05,46,7.60
2017,05,22,05,47,7.60
2017,05,22,05,48,7.60
2017,05,22,05,49,7.60
2017,05,22,05,50,7.60
2017,05,22,05,51,7.60
2017,05,22,05,52,7.40
2017,05,22,05,53,7.40
2017,05,22,05,54,7.40
2017,05,22,05,55,7.40
2017,05,22,05,56,7.40
2017,05,22,05,57,7.40
2017,05,22,05,58,7.40
2017,05,22,05,59,7.40
2017,05,22,06,00,7.40
2017,05,22,06,01,7.40
2017,05,22,06,02,7.40
2017,05,22,06,03,7.40
2017,05,22,06,04,7.40
2017,05,22,06,05,7.40
2017,05,22,06,06,7.40
2017,05,22,06,07,7.40
2017,05,22,06,08,7.40
2017,05,22,06,09,7.40
2017,05,22,06,10,7.40
2017,05,22,06,11,7.40
2017,05,22,06,12,7.50
2017,05,22,06,13,7.50
2017,05,22,06,14,7.50
2017,05,22,06,15,7.50
2017,05,22,06,16,7.50
2017,05,22,06,17,7.50
2017,05,22,06,18,7.50
2017,05,22,06,19,7.50
2017,05,22,06,20,7.50
2017,05,22,06,21,7.50
2017,05,22,06,22,7.80
2017,05,22,06,23,7.80
2017,05,22,06,24,7.80
2017,05,22,06,25,7.80
2017,05,22,06,26,7.80
2017,05,22,06,27,7.80
2017,05,22,06,28,7.80
2017,05,22,06,29,7.80
2017,05,22,06,30,7.80
2017,05,22,06,31,7.80
2017,05,22,06,32,7.80
2017,05,22,06,33,7.90
2017,05,22,06,34,7.90
2017,05,22,06,35,7.90
2017,05,22,06,36,7.90
2017,05,22,06,37,7.90
2017,05,22,06,38,7.90
2017,05,22,06,39,7.90
2017,05,22,06,40,7.90
2017,05,22,06,41,7.90
2017,05,22,06,42,7.40
2017,05,22,06,43,7.40
2017,05,22,06,44,7.40
2017,05,22,06,45,7.40
2017,05,22,06,46,7.40
2017,05,22,06,47,7.40
2017,05,22,06,48,7.40
2017,05,22,06,49,7.40
2017,05,22,06,50,7.40
2017,05,22,06,51,7.40
2017,05,22,06,52,8.20
2017,05,22,06,53,8.20
2017,05,22,06,54,8.20
2017,05,22,06,55,8.20
2017,05,22,06,56,8.20
2017,05,22,06,57,8.20
2017,05,22,06,58,8.20
2017,05,22,06,59,8.20
2017,05,22,07,00,8.20
2017,05,22,07,01,8.20
2017,05,22,07,02,8.20
2017,05,22,07,03,8.20
2017,05,22,07,04,8.90
2017,05,22,07,05,8.90
2017,05,22,07,06,8.90
2017,05,22,07,07,8.90
2017,05,22,07,08,8.90
2017,05,22,07,09,8.90
2017,05,22,07,10,8.90
2017,05,22,07,11,8.90
2017,05,22,07,12,8.90
2017,05,22,07,13,8.90
2017,05,22,07,14,8.90
2017,05,22,07,15,8.90
2017,05,22,07,16,8.90
2017,05,22,07,17,8.90
2017,05,22,07,18,8.90
2017,05,22,07,19,8.90
2017,05,22,07,20,8.90
2017,05,22,07,21,8.90
2017,05,22,07,22,8.90
2017,05,22,07,23,10.50
2017,05,22,07,24,10.50
2017,05,22,07,25,10.50
2017,05,22,07,26,10.50
2017,05,22,07,27,10.50
2017,05,22,07,28,10.50
2017,05,22,07,29,10.50
2017,05,22,07,30,10.50
2017,05,22,07,31,10.50
2017,05,22,07,32,11.20
2017,05,22,07,33,11.20
2017,05,22,07,34,11.20
2017,05,22,07,35,11.20
2017,05,22,07,36,11.20
2017,05,22,07,37,11.20
2017,05,22,07,38,11.20
2017,05,22,07,39,11.20
2017,05,22,07,40,11.20
2017,05,22,07,41,11.20
2017,05,22,07,42,10.80
2017,05,22,07,43,10.80
2017,05,22,07,44,10.80
2017,05,22,07,45,10.80
2017,05,22,07,46,10.80
2017,05,22,07,47,10.80
2017,05,22,07,48,10.80
2017,05,22,07,49,10.80
2017,05,22,07,50,10.80
2017,05,22,07,51,10.80
2017,05,22,07,52,10.80
2017,05,22,07,53,10.80
2017,05,22,07,54,11.80
2017,05,22,07,55,11.80
2017,05,22,07,56,11.80
2017,05,22,07,57,11.80
2017,05,22,07,58,11.80
2017,05,22,07,59,11.80
2017,05,22,08,00,11.80
2017,05,22,08,01,11.80
2017,05,22,08,02,13.10
2017,05,22,08,03,13.10
2017,05,22,08,04,13.10
2017,05,22,08,05,13.10
2017,05,22,08,06,13.10
2017,05,22,08,07,13.10
2017,05,22,08,08,13.10
2017,05,22,08,09,13.10
2017,05,22,08,10,13.10
2017,05,22,08,11,13.10
2017,05,22,08,12,13.10
2017,05,22,08,13,13.70
2017,05,22,08,14,13.70
2017,05,22,08,15,13.70
2017,05,22,08,16,13.70
2017,05,22,08,17,13.70
2017,05,22,08,18,13.70
2017,05,22,08,19,13.70
2017,05,22,08,20,13.70
2017,05,22,08,21,13.70
2017,05,22,08,22,13.70
2017,05,22,08,23,13.80
2017,05,22,08,24,13.80
2017,05,22,08,25,13.80
2017,05,22,08,26,13.80
2017,05,22,08,27,13.80
2017,05,22,08,28,13.80
2017,05,22,08,29,13.80
2017,05,22,08,30,13.80
2017,05,22,08,31,13.80
2017,05,22,08,32,13.80
2017,05,22,08,33,14.40
2017,05,22,08,34,14.40
2017,05,22,08,35,14.40
2017,05,22,08,36,14.40
2017,05,22,08,37,14.40
2017,05,22,08,38,14.40
2017,05,22,08,39,14.40
2017,05,22,08,40,14.40
2017,05,22,08,41,14.40
2017,05,22,08,52,15.70
2017,05,22,08,53,15.70
2017,05,22,08,54,15.70
2017,05,22,08,55,15.70
2017,05,22,08,56,15.70
2017,05,22,08,57,15.70
2017,05,22,08,58,15.70
2017,05,22,08,59,15.70
2017,05,22,09,00,15.70
2017,05,22,09,01,15.70
2017,05,22,09,02,15.70
2017,05,22,09,03,16.30
2017,05,22,09,04,16.30
2017,05,22,09,05,16.30
2017,05,22,09,06,16.30
2017,05,22,09,07,16.30
2017,05,22,09,08,16.30
2017,05,22,09,09,16.30
2017,05,22,09,10,16.30
2017,05,22,09,11,16.30
2017,05,22,09,12,16.30
2017,05,22,09,13,16.30
2017,05,22,09,14,16.20
2017,05,22,09,15,16.20
2017,05,22,09,16,16.20
2017,05,22,09,17,16.20
2017,05,22,09,18,16.20
2017,05,22,09,19,16.20
2017,05,22,09,20,16.20
2017,05,22,09,21,16.20
2017,05,22,09,22,16.10
2017,05,22,09,23,16.10
2017,05,22,09,24,16.10
2017,05,22,09,25,16.10
2017,05,22,09,26,16.10
2017,05,22,09,27,16.10
2017,05,22,09,28,16.10
2017,05,22,09,29,16.10
2017,05,22,09,30,16.10
2017,05,22,09,31,16.10
2017,05,22,09,32,16.10
2017,05,22,09,33,16.10
2017,05,22,09,34,16.10
2017,05,22,09,35,16.10
2017,05,22,09,36,16.10
2017,05,22,09,37,16.10
2017,05,22,09,38,16.10
2017,05,22,09,39,16.10
2017,05,22,09,40,16.10
2017,05,22,09,41,16.10
2017,05,22,09,42,16.10
2017,05,22,09,43,16.30
2017,05,22,09,44,16.30
2017,05,22,09,45,16.30
2017,05,22,09,46,16.30
2017,05,22,09,47,16.30
2017,05,22,09,48,16.30
2017,05,22,09,49,16.30
2017,05,22,09,50,16.30
2017,05,22,09,51,16.30
2017,05,22,09,52,16.70
2017,05,22,09,53,16.70
2017,05,22,09,54,16.70
2017,05,22,09,55,16.70
2017,05,22,09,56,16.70
2017,05,22,09,57,16.70
2017,05,22,09,58,16.70
2017,05,22,09,59,16.70
2017,05,22,10,00,16.70
2017,05,22,10,01,16.70
2017,05,22,10,02,16.70
2017,05,22,10,03,16.70
2017,05,22,10,04,16.70
2017,05,22,10,05,16.70
2017,05,22,10,06,16.70
2017,05,22,10,07,16.70
2017,05,22,10,08,16.70
2017,05,22,10,09,16.70
2017,05,22,10,10,16.70
2017,05,22,10,11,16.70
2017,05,22,10,12,16.70
2017,05,22,10,13,16.80
2017,05,22,10,14,16.80
2017,05,22,10,15,16.80
2017,05,22,10,16,16.80
2017,05,22,10,17,16.80
2017,05,22,10,18,16.80
2017,05,22,10,19,16.80
2017,05,22,10,20,16.80
2017,05,22,10,21,16.80
2017,05,22,10,22,16.80
2017,05,22,10,23,17.20
2017,05,22,10,24,17.20
2017,05,22,10,25,17.20
2017,05,22,10,26,17.20
2017,05,22,10,27,17.20
2017,05,22,10,28,17.20
2017,05,22,10,29,17.20
2017,05,22,10,30,17.20
2017,05,22,10,31,17.20
2017,05,22,10,32,17.20
2017,05,22,10,33,17.70
2017,05,22,10,34,17.70
2017,05,22,10,35,17.70
2017,05,22,10,36,17.70
2017,05,22,10,37,17.70
2017,05,22,10,38,17.70
2017,05,22,10,39,17.70
2017,05,22,10,40,17.70
2017,05,22,10,41,17.70
2017,05,22,10,42,17.80
2017,05,22,10,43,17.80
2017,05,22,10,44,17.80
2017,05,22,10,45,17.80
2017,05,22,10,46,17.80
2017,05,22,10,47,17.80
2017,05,22,10,48,17.80
2017,05,22,10,49,17.80
2017,05,22,10,50,17.80
2017,05,22,10,51,17.80
2017,05,22,10,52,17.80
2017,05,22,10,53,18.00
2017,05,22,10,54,18.00
2017,05,22,10,55,18.00
2017,05,22,10,56,18.00
2017,05,22,10,57,18.00
2017,05,22,10,58,18.00
2017,05,22,10,59,18.00
2017,05,22,11,00,18.00
2017,05,22,11,01,18.00
2017,05,22,11,02,18.70
2017,05,22,11,03,18.70
2017,05,22,11,04,18.70
2017,05,22,11,05,18.70
2017,05,22,11,06,18.70
2017,05,22,11,07,18.70
2017,05,22,11,08,18.70
2017,05,22,11,09,18.70
2017,05,22,11,10,18.70
2017,05,22,11,11,18.70
2017,05,22,11,12,19.40
2017,05,22,11,13,19.40
2017,05,22,11,14,19.40
2017,05,22,11,15,19.40
2017,05,22,11,16,19.40
2017,05,22,11,17,19.40
2017,05,22,11,18,19.40
2017,05,22,11,19,19.40
2017,05,22,11,20,19.40
2017,05,22,11,21,19.40
2017,05,22,11,22,19.80
2017,05,22,11,23,19.80
2017,05,22,11,24,19.80
2017,05,22,11,25,19.80
2017,05,22,11,26,19.80
2017,05,22,11,27,19.80
2017,05,22,11,28,19.80
2017,05,22,11,29,19.80
2017,05,22,11,30,19.80
2017,05,22,11,31,19.80
2017,05,22,11,32,20.00
2017,05,22,11,33,20.00
2017,05,22,11,34,20.00
2017,05,22,11,35,20.00
2017,05,22,11,36,20.00
2017,05,22,11,37,20.00
2017,05,22,11,38,20.00
2017,05,22,11,39,20.00
2017,05,22,11,40,20.00
2017,05,22,11,41,20.00
2017,05,22,11,42,19.80
2017,05,22,11,43,19.80
2017,05,22,11,44,19.80
2017,05,22,11,45,19.80
2017,05,22,11,46,19.80
2017,05,22,11,47,19.80
2017,05,22,11,48,19.80
2017,05,22,11,49,19.80
2017,05,22,11,50,19.80
2017,05,22,11,51,19.80
2017,05,22,11,52,19.80
2017,05,22,11,53,19.10
2017,05,22,11,54,19.10
2017,05,22,11,55,19.10
2017,05,22,11,56,19.10
2017,05,22,11,57,19.10
2017,05,22,11,58,19.10
2017,05,22,11,59,19.10
2017,05,22,12,00,19.10
2017,05,22,12,01,19.10
2017,05,22,12,02,18.80
2017,05,22,12,03,18.80
2017,05,22,12,04,18.80
2017,05,22,12,05,18.80
2017,05,22,12,06,18.80
2017,05,22,12,07,18.80
2017,05,22,12,08,18.80
2017,05,22,12,09,18.80
2017,05,22,12,10,18.80
2017,05,22,12,11,18.80
2017,05,22,12,12,18.80
2017,05,22,12,13,19.10
2017,05,22,12,14,19.10
2017,05,22,12,15,19.10
2017,05,22,12,16,19.10
2017,05,22,12,17,19.10
2017,05,22,12,18,19.10
2017,05,22,12,19,19.10
2017,05,22,12,20,19.10
2017,05,22,12,21,19.10
2017,05,22,12,22,19.10
2017,05,22,12,23,19.10
2017,05,22,12,24,19.10
2017,05,22,12,25,19.10
2017,05,22,12,26,19.10
2017,05,22,12,27,19.10
2017,05,22,12,28,19.10
2017,05,22,12,29,19.10
2017,05,22,12,30,19.10
2017,05,22,12,31,19.10
2017,05,22,12,32,19.10
2017,05,22,12,33,19.70
2017,05,22,12,34,19.70
2017,05,22,12,35,19.70
2017,05,22,12,36,19.70
2017,05,22,12,37,19.70
2017,05,22,12,38,19.70
2017,05,22,12,39,19.70
2017,05,22,12,40,19.70
2017,05,22,12,41,19.70
2017,05,22,12,42,19.50
2017,05,22,12,43,19.50
2017,05,22,12,44,19.50
2017,05,22,12,45,19.50
2017,05,22,12,46,19.50
2017,05,22,12,47,19.50
2017,05,22,12,48,19.50
2017,05,22,12,49,19.50
2017,05,22,12,50,19.50
2017,05,22,12,51,19.50
2017,05,22,12,52,19.50
2017,05,22,12,53,19.40
2017,05,22,12,54,19.40
2017,05,22,12,55,19.40
2017,05,22,12,56,19.40
2017,05,22,12,57,19.40
2017,05,22,12,58,19.40
2017,05,22,12,59,19.40
2017,05,22,13,00,19.40
2017,05,22,13,01,19.40
2017,05,22,13,02,19.40
2017,05,22,13,03,19.40
2017,05,22,13,04,19.40
2017,05,22,13,05,19.40
2017,05,22,13,06,19.40
2017,05,22,13,07,19.40
2017,05,22,13,08,19.40
2017,05,22,13,09,19.40
2017,05,22,13,10,19.40
2017,05,22,13,11,19.40
2017,05,22,13,12,19.40
2017,05,22,13,13,19.40
2017,05,22,13,14,19.40
2017,05,22,13,15,19.40
2017,05,22,13,16,19.40
2017,05,22,13,17,19.40
2017,05,22,13,18,19.40
2017,05,22,13,19,19.40
2017,05,22,13,20,19.40
2017,05,22,13,21,19.40
2017,05,22,13,22,19.60
2017,05,22,13,23,19.60
2017,05,22,13,24,19.60
2017,05,22,13,25,19.60
2017,05,22,13,26,19.60
2017,05,22,13,27,19.60
2017,05,22,13,28,19.60
2017,05,22,13,29,19.60
2017,05,22,13,30,19.60
2017,05,22,13,31,19.60
2017,05,22,13,32,19.60
2017,05,22,13,33,19.60
2017,05,22,13,34,19.60
2017,05,22,13,35,19.60
2017,05,22,13,36,19.60
2017,05,22,13,37,19.60
2017,05,22,13,38,19.60
2017,05,22,13,39,19.60
2017,05,22,13,40,19.60
2017,05,22,13,41,19.60
2017,05,22,13,42,19.60
2017,05,22,13,43,19.40
2017,05,22,13,44,19.40
2017,05,22,13,45,19.40
2017,05,22,13,46,19.40
2017,05,22,13,47,19.40
2017,05,22,13,48,19.40
2017,05,22,13,49,19.40
2017,05,22,13,50,19.40
2017,05,22,13,51,19.40
2017,05,22,13,52,19.60
2017,05,22,13,53,19.60
2017,05,22,13,54,19.60
2017,05,22,13,55,19.60
2017,05,22,13,56,19.60
2017,05,22,13,57,19.60
2017,05,22,13,58,19.60
2017,05,22,13,59,19.60
2017,05,22,14,00,19.60
2017,05,22,14,01,19.60
2017,05,22,14,02,19.60
2017,05,22,14,03,19.70
2017,05,22,14,04,19.70
2017,05,22,14,05,19.70
2017,05,22,14,06,19.70
2017,05,22,14,07,19.70
2017,05,22,14,08,19.70
2017,05,22,14,09,19.70
2017,05,22,14,10,19.70
2017,05,22,14,11,19.70
2017,05,22,14,12,19.80
2017,05,22,14,13,19.80
2017,05,22,14,14,19.80
2017,05,22,14,15,19.80
2017,05,22,14,16,19.80
2017,05,22,14,17,19.80
2017,05,22,14,18,19.80
2017,05,22,14,19,19.80
2017,05,22,14,20,19.80
2017,05,22,14,21,19.80
2017,05,22,14,22,19.80
2017,05,22,14,23,19.80
2017,05,22,14,24,19.80
2017,05,22,14,25,19.80
2017,05,22,14,26,19.80
2017,05,22,14,27,19.80
2017,05,22,14,28,19.80
2017,05,22,14,29,19.80
2017,05,22,14,30,19.80
2017,05,22,14,31,19.80
2017,05,22,14,32,20.00
2017,05,22,14,33,20.00
2017,05,22,14,34,20.00
2017,05,22,14,35,20.00
2017,05,22,14,36,20.00
2017,05,22,14,37,20.00
2017,05,22,14,38,20.00
2017,05,22,14,39,20.00
2017,05,22,14,40,20.00
2017,05,22,14,41,20.00
2017,05,22,14,42,20.00
2017,05,22,14,43,20.00
2017,05,22,15,13,20.70
2017,05,22,15,14,20.70
2017,05,22,15,15,20.70
2017,05,22,15,16,20.70
2017,05,22,15,17,20.70
2017,05,22,15,18,20.70
2017,05,22,15,19,20.70
2017,05,22,15,20,20.70
2017,05,22,15,21,20.70
2017,05,22,15,22,20.70
2017,05,22,15,23,20.70
2017,05,22,15,24,20.70
2017,05,22,15,25,20.70
2017,05,22,15,26,20.70
2017,05,22,15,27,20.70
2017,05,22,15,28,20.70
2017,05,22,15,29,20.70
2017,05,22,15,30,20.70
2017,05,22,15,31,20.70
2017,05,22,15,32,20.60
2017,05,22,15,33,20.60
2017,05,22,15,34,20.60
2017,05,22,15,35,20.60
2017,05,22,15,36,20.60
2017,05,22,15,37,20.60
2017,05,22,15,38,20.60
2017,05,22,15,39,20.60
2017,05,22,15,40,20.60
2017,05,22,15,41,20.60
2017,05,22,15,42,20.60
2017,05,22,15,43,20.40
2017,05,22,15,44,20.40
2017,05,22,15,45,20.40
2017,05,22,15,46,20.40
2017,05,22,15,47,20.40
2017,05,22,15,48,20.40
2017,05,22,15,49,20.40
2017,05,22,15,50,20.40
2017,05,22,15,51,20.40
2017,05,22,15,52,20.40
2017,05,22,16,03,20.50
2017,05,22,16,04,20.50
2017,05,22,16,05,20.50
2017,05,22,16,06,20.50
2017,05,22,16,07,20.50
2017,05,22,16,08,20.50
2017,05,22,16,09,20.50
2017,05,22,16,10,20.50
2017,05,22,16,11,20.50
2017,05,22,16,12,20.40
2017,05,22,16,13,20.40
2017,05,22,16,14,20.40
2017,05,22,16,15,20.40
2017,05,22,16,16,20.40
2017,05,22,16,17,20.40
2017,05,22,16,18,20.40
2017,05,22,16,19,20.40
2017,05,22,16,20,20.40
2017,05,22,16,21,20.40
2017,05,22,16,22,20.70
2017,05,22,16,23,20.70
2017,05,22,16,24,20.70
2017,05,22,16,25,20.70
2017,05,22,16,26,20.70
2017,05,22,16,27,20.70
2017,05,22,16,28,20.70
2017,05,22,16,29,20.70
2017,05,22,16,30,20.70
2017,05,22,16,31,20.70
2017,05,22,16,32,20.70
2017,05,22,16,33,20.70
2017,05,22,16,34,20.60
2017,05,22,16,35,20.60
2017,05,22,16,36,20.60
2017,05,22,16,37,20.60
2017,05,22,16,38,20.60
2017,05,22,16,39,20.60
2017,05,22,16,40,20.60
2017,05,22,16,41,20.60
2017,05,22,16,42,20.60
2017,05,22,16,43,20.30
2017,05,22,16,44,20.30
2017,05,22,16,45,20.30
2017,05,22,16,46,20.30
2017,05,22,16,47,20.30
2017,05,22,16,48,20.30
2017,05,22,16,49,20.30
2017,05,22,16,50,20.30
2017,05,22,16,51,20.30
2017,05,22,16,52,20.30
2017,05,22,16,53,20.30
2017,05,22,16,54,20.30
2017,05,22,16,55,20.30
2017,05,22,16,56,20.30
2017,05,22,16,57,20.30
2017,05,22,16,58,20.30
2017,05,22,16,59,20.30
2017,05,22,17,00,20.30
2017,05,22,17,01,20.30
2017,05,22,17,02,20.20
2017,05,22,17,03,20.20
2017,05,22,17,04,20.20
2017,05,22,17,05,20.20
2017,05,22,17,06,20.20
2017,05,22,17,07,20.20
2017,05,22,17,08,20.20
2017,05,22,17,09,20.20
2017,05,22,17,10,20.20
2017,05,22,17,11,20.20
2017,05,22,17,12,20.10
2017,05,22,17,13,20.10
2017,05,22,17,14,20.10
2017,05,22,17,15,20.10
2017,05,22,17,16,20.10
2017,05,22,17,17,20.10
2017,05,22,17,18,20.10
2017,05,22,17,19,20.10
2017,05,22,17,20,20.10
2017,05,22,17,21,20.10
2017,05,22,17,22,19.80
2017,05,22,17,23,19.80
2017,05,22,17,24,19.80
2017,05,22,17,25,19.80
2017,05,22,17,26,19.80
2017,05,22,17,27,19.80
2017,05,22,17,28,19.80
2017,05,22,17,29,19.80
2017,05,22,17,30,19.80
2017,05,22,17,31,19.80
2017,05,22,17,32,19.80
2017,05,22,17,33,19.80
2017,05,22,17,34,19.80
2017,05,22,17,35,19.80
2017,05,22,17,36,19.80
2017,05,22,17,37,19.80
2017,05,22,17,38,19.80
2017,05,22,17,39,19.80
2017,05,22,17,40,19.80
2017,05,22,17,41,19.80
2017,05,22,17,42,19.60
2017,05,22,17,43,19.60
2017,05,22,17,44,19.60
2017,05,22,17,45,19.60
2017,05,22,17,46,19.60
2017,05,22,17,47,19.60
2017,05,22,17,48,19.60
2017,05,22,17,49,19.60
2017,05,22,17,50,19.60
2017,05,22,17,51,19.60
2017,05,22,17,52,19.60
2017,05,22,17,53,19.60
2017,05,22,17,54,19.60
2017,05,22,17,55,19.60
2017,05,22,17,56,19.60
2017,05,22,17,57,19.60
2017,05,22,17,58,19.60
2017,05,22,17,59,19.60
2017,05,22,18,00,19.60
2017,05,22,18,01,19.60
2017,05,22,18,02,19.60
2017,05,22,18,03,19.60
2017,05,22,18,04,19.60
2017,05,22,18,05,19.60
2017,05,22,18,06,19.60
2017,05,22,18,07,19.60
2017,05,22,18,08,19.60
2017,05,22,18,09,19.60
2017,05,22,18,10,19.60
2017,05,22,18,11,19.60
2017,05,22,18,12,19.70
2017,05,22,18,13,19.70
2017,05,22,18,14,19.70
2017,05,22,18,15,19.70
2017,05,22,18,16,19.70
2017,05,22,18,17,19.70
2017,05,22,18,18,19.70
2017,05,22,18,19,19.70
2017,05,22,18,20,19.70
2017,05,22,18,21,19.70
2017,05,22,18,22,19.40